TimeEST,TemperatureF,Dew PointF,Humidity,Sea Level PressureIn,VisibilityMPH,Wind Direction,Wind SpeedMPH,Gust SpeedMPH,PrecipitationIn,Events,Conditions,WindDirDegrees,DateUTC
12:15 AM,26.6,23.9,90,30.16,10.0,South,5.8,-,N/A,,Clear,190,2013-01-05 05:15:00
12:35 AM,24.8,22.5,91,30.16,10.0,Calm,Calm,-,N/A,,Clear,0,2013-01-05 05:35:00
12:55 AM,24.1,22.1,92,30.16,10.0,Calm,Calm,-,N/A,,Clear,0,2013-01-05 05:55:00
1:15 AM,23.9,21.7,91,30.16,10.0,Calm,Calm,-,N/A,,Clear,0,2013-01-05 06:15:00
1:55 AM,24.1,22.3,93,30.17,10.0,Calm,Calm,-,N/A,,Clear,0,2013-01-05 06:55:00
2:15 AM,22.1,21.2,96,30.18,10.0,Calm,Calm,-,N/A,,Clear,0,2013-01-05 07:15:00
2:35 AM,23.9,22.6,95,30.19,10.0,Calm,Calm,-,N/A,,Clear,0,2013-01-05 07:35:00
2:55 AM,21.7,21.6,99,30.20,10.0,Calm,Calm,-,N/A,,Clear,0,2013-01-05 07:55:00
3:15 AM,22.5,21.7,97,30.21,10.0,Calm,Calm,-,N/A,,Clear,0,2013-01-05 08:15:00
3:35 AM,23.9,22.3,94,30.22,10.0,Calm,Calm,-,N/A,,Clear,0,2013-01-05 08:35:00
3:55 AM,22.8,22.3,98,30.23,10.0,Calm,Calm,-,N/A,,Clear,0,2013-01-05 08:55:00
4:15 AM,22.6,21.2,94,30.23,10.0,Calm,Calm,-,N/A,,Clear,0,2013-01-05 09:15:00
4:35 AM,20.3,19.8,98,30.23,10.0,Calm,Calm,-,N/A,,Clear,0,2013-01-05 09:35:00
4:55 AM,21.9,21.4,98,30.23,10.0,Calm,Calm,-,N/A,,Clear,0,2013-01-05 09:55:00
5:15 AM,20.5,20.3,99,30.25,10.0,Calm,Calm,-,N/A,,Clear,0,2013-01-05 10:15:00
5:35 AM,22.3,21.7,98,30.26,10.0,Calm,Calm,-,N/A,,Clear,0,2013-01-05 10:35:00
5:55 AM,21.4,21.4,100,30.27,10.0,Calm,Calm,-,N/A,,Clear,0,2013-01-05 10:55:00
6:15 AM,20.8,20.1,97,30.28,10.0,Calm,Calm,-,N/A,,Clear,0,2013-01-05 11:15:00
6:35 AM,20.7,19.9,97,30.29,10.0,Calm,Calm,-,N/A,,Clear,0,2013-01-05 11:35:00
7:15 AM,21.0,20.7,99,30.30,10.0,Calm,Calm,-,N/A,,Clear,0,2013-01-05 12:15:00
7:35 AM,20.8,20.1,97,30.30,10.0,Calm,Calm,-,N/A,,Clear,0,2013-01-05 12:35:00
7:55 AM,21.2,20.3,96,30.31,10.0,SW,3.5,-,N/A,,Clear,230,2013-01-05 12:55:00
8:15 AM,22.8,22.5,99,30.32,10.0,Calm,Calm,-,N/A,,Clear,0,2013-01-05 13:15:00
8:35 AM,26.4,25.2,95,30.33,10.0,Calm,Calm,-,N/A,,Clear,0,2013-01-05 13:35:00
8:55 AM,31.6,28.8,89,30.33,10.0,North,4.6,-,N/A,,Clear,10,2013-01-05 13:55:00
9:15 AM,34.3,31.5,89,30.36,10.0,SSE,3.5,-,N/A,,Clear,150,2013-01-05 14:15:00
9:35 AM,38.5,27.9,66,30.35,10.0,Calm,Calm,-,N/A,,Clear,0,2013-01-05 14:35:00
10:15 AM,40.1,27.9,62,30.37,10.0,East,3.5,-,N/A,,Clear,90,2013-01-05 15:15:00
10:35 AM,41.0,27.5,59,30.38,10.0,Calm,Calm,-,N/A,,Clear,0,2013-01-05 15:35:00
10:55 AM,41.7,27.7,58,30.37,10.0,Calm,Calm,-,N/A,,Clear,0,2013-01-05 15:55:00
11:15 AM,42.6,27.5,55,30.37,10.0,Calm,Calm,-,N/A,,Clear,0,2013-01-05 16:15:00
11:55 AM,43.7,28.2,54,30.35,10.0,Calm,Calm,-,N/A,,Clear,0,2013-01-05 16:55:00
12:15 PM,44.8,28.2,52,30.34,10.0,Calm,Calm,-,N/A,,Clear,0,2013-01-05 17:15:00
12:35 PM,45.7,28.8,52,30.33,10.0,Calm,Calm,-,N/A,,Clear,0,2013-01-05 17:35:00
12:55 PM,45.9,28.4,51,30.31,10.0,SE,3.5,-,N/A,,Clear,130,2013-01-05 17:55:00
1:15 PM,46.2,28.4,50,30.30,10.0,SSE,4.6,-,N/A,,Clear,150,2013-01-05 18:15:00
1:35 PM,46.8,26.6,45,30.30,10.0,Calm,Calm,-,N/A,,Clear,0,2013-01-05 18:35:00
1:55 PM,47.7,26.6,44,30.29,10.0,Calm,Calm,-,N/A,,Clear,0,2013-01-05 18:55:00
2:15 PM,47.8,27.3,45,30.28,10.0,Calm,Calm,-,N/A,,Clear,0,2013-01-05 19:15:00
2:35 PM,48.2,27.0,44,30.28,10.0,Calm,Calm,-,N/A,,Clear,0,2013-01-05 19:35:00
2:55 PM,48.9,27.5,43,30.28,10.0,SSW,5.8,-,N/A,,Clear,210,2013-01-05 19:55:00
3:15 PM,48.6,26.8,43,30.28,10.0,Calm,Calm,-,N/A,,Clear,0,2013-01-05 20:15:00
3:35 PM,48.4,27.5,44,30.28,10.0,Calm,Calm,-,N/A,,Clear,0,2013-01-05 20:35:00
3:55 PM,48.2,27.1,44,30.27,10.0,Calm,Calm,-,N/A,,Clear,0,2013-01-05 20:55:00
4:15 PM,47.3,27.5,46,30.27,10.0,Calm,Calm,-,N/A,,Clear,0,2013-01-05 21:15:00
4:35 PM,44.8,28.6,53,30.27,10.0,Calm,Calm,-,N/A,,Clear,0,2013-01-05 21:35:00
4:55 PM,42.8,28.8,58,30.26,10.0,Calm,Calm,-,N/A,,Clear,0,2013-01-05 21:55:00
5:15 PM,40.5,28.4,62,30.26,10.0,Calm,Calm,-,N/A,,Clear,0,2013-01-05 22:15:00
5:35 PM,38.1,28.2,68,30.26,10.0,Calm,Calm,-,N/A,,Clear,0,2013-01-05 22:35:00
6:15 PM,37.6,29.1,72,30.25,10.0,ESE,3.5,-,N/A,,Clear,110,2013-01-05 23:15:00
6:35 PM,37.0,29.5,74,30.25,10.0,Calm,Calm,-,N/A,,Clear,0,2013-01-05 23:35:00
6:55 PM,37.2,29.3,73,30.24,10.0,ESE,4.6,-,N/A,,Clear,120,2013-01-05 23:55:00
7:15 PM,38.1,29.3,71,30.24,10.0,SE,4.6,-,N/A,,Clear,130,2013-01-06 00:15:00
7:35 PM,40.3,29.8,66,30.24,10.0,SE,3.5,-,N/A,,Clear,140,2013-01-06 00:35:00
7:55 PM,41.0,29.5,64,30.23,10.0,ESE,4.6,-,N/A,,Clear,120,2013-01-06 00:55:00
8:15 PM,40.6,29.5,64,30.24,10.0,SE,4.6,-,N/A,,Clear,140,2013-01-06 01:15:00
8:55 PM,42.3,29.3,60,30.22,10.0,SSE,5.8,-,N/A,,Scattered Clouds,150,2013-01-06 01:55:00
9:15 PM,42.8,29.3,59,30.21,10.0,SSE,5.8,-,N/A,,Mostly Cloudy,160,2013-01-06 02:15:00
9:55 PM,42.3,30.4,63,30.21,10.0,South,3.5,-,N/A,Rain,Light Rain,180,2013-01-06 02:55:00
10:15 PM,42.4,30.7,63,30.21,10.0,South,6.9,-,N/A,,Overcast,190,2013-01-06 03:15:00
10:35 PM,41.7,31.8,68,30.21,10.0,SSE,3.5,-,N/A,Rain,Light Rain,160,2013-01-06 03:35:00
10:55 PM,41.2,32.0,70,30.20,10.0,SSE,3.5,-,N/A,Rain,Light Rain,160,2013-01-06 03:55:00
11:15 PM,41.0,32.2,71,30.19,10.0,SSE,3.5,-,N/A,Rain,Rain,150,2013-01-06 04:15:00
11:35 PM,40.8,32.9,73,30.18,10.0,SSE,4.6,-,N/A,Rain,Light Rain,160,2013-01-06 04:35:00
11:55 PM,41.4,32.7,71,30.18,10.0,South,4.6,-,N/A,,Overcast,190,2013-01-06 04:55:00